Time,TemperatureF,DewpointF,PressureIn,WindDirection,WindDirectionDegrees,WindSpeedMPH,WindSpeedGustMPH,Humidity,HourlyPrecipIn,Conditions,Clouds,dailyrainin,SolarRadiationWatts/m^2,SoftwareType,DateUTC
2013-07-17 00:06:00,75.9,71.0,30.23,South,170,0.0,0.0,85,0.00,,,0.00,0,weatherlink.com 1.10,2013-07-17 05:06:00,
2013-07-17 00:21:00,76.0,71.0,30.23,South,170,0.0,1.0,85,0.00,,,0.00,0,weatherlink.com 1.10,2013-07-17 05:21:00,
2013-07-17 00:37:00,76.5,71.0,30.24,South,173,0.0,2.0,84,0.00,,,0.00,0,weatherlink.com 1.10,2013-07-17 05:37:00,
2013-07-17 00:51:00,77.3,71.0,30.24,SW,228,1.0,3.0,82,0.00,,,0.00,0,weatherlink.com 1.10,2013-07-17 05:51:00,
2013-07-17 01:06:00,77.6,71.0,30.24,SSW,203,0.0,2.0,81,0.00,,,0.00,0,weatherlink.com 1.10,2013-07-17 06:06:00,
2013-07-17 01:21:00,77.4,71.0,30.24,SSW,203,0.0,2.0,81,0.00,,,0.00,0,weatherlink.com 1.10,2013-07-17 06:21:00,
2013-07-17 01:36:00,77.3,71.0,30.24,SW,234,1.0,2.0,81,0.00,,,0.00,0,weatherlink.com 1.10,2013-07-17 06:36:00,
2013-07-17 01:51:00,77.4,71.0,30.24,SW,217,0.0,2.0,80,0.00,,,0.00,0,weatherlink.com 1.10,2013-07-17 06:51:00,
2013-07-17 02:06:00,77.5,71.0,30.24,South,189,0.0,4.0,79,0.00,,,0.00,0,weatherlink.com 1.10,2013-07-17 07:06:00,
2013-07-17 02:21:00,77.6,71.0,30.24,South,170,2.0,2.0,79,0.00,,,0.00,0,weatherlink.com 1.10,2013-07-17 07:21:00,
2013-07-17 02:36:00,77.4,70.0,30.24,SSE,159,1.0,3.0,78,0.00,,,0.00,0,weatherlink.com 1.10,2013-07-17 07:36:00,
2013-07-17 02:51:00,77.5,70.0,30.24,SSE,166,1.0,4.0,78,0.00,,,0.00,0,weatherlink.com 1.10,2013-07-17 07:51:00,
2013-07-17 03:06:00,77.5,70.0,30.24,SSW,195,1.0,4.0,78,0.00,,,0.00,0,weatherlink.com 1.10,2013-07-17 08:06:00,
2013-07-17 03:21:00,77.2,70.0,30.24,SSE,155,0.0,4.0,78,0.00,,,0.00,0,weatherlink.com 1.10,2013-07-17 08:21:00,
2013-07-17 03:36:00,76.6,70.0,30.24,SSE,160,0.0,2.0,79,0.00,,,0.00,0,weatherlink.com 1.10,2013-07-17 08:36:00,
2013-07-17 03:51:00,75.8,70.0,30.24,SSE,160,0.0,1.0,81,0.00,,,0.00,0,weatherlink.com 1.10,2013-07-17 08:51:00,
2013-07-17 04:06:00,75.5,70.0,30.24,SSE,150,0.0,3.0,82,0.00,,,0.00,0,weatherlink.com 1.10,2013-07-17 09:06:00,
2013-07-17 04:21:00,75.0,70.0,30.24,SSE,155,0.0,2.0,83,0.00,,,0.00,0,weatherlink.com 1.10,2013-07-17 09:21:00,
2013-07-17 04:36:00,74.6,70.0,30.25,SSE,155,0.0,1.0,84,0.00,,,0.00,0,weatherlink.com 1.10,2013-07-17 09:36:00,
2013-07-17 04:51:00,74.2,69.0,30.25,SSE,155,0.0,2.0,84,0.00,,,0.00,0,weatherlink.com 1.10,2013-07-17 09:51:00,
2013-07-17 05:06:00,74.0,69.0,30.25,SSE,155,0.0,1.0,85,0.00,,,0.00,0,weatherlink.com 1.10,2013-07-17 10:06:00,
2013-07-17 05:21:00,72.6,69.0,30.25,SSE,155,0.0,0.0,89,0.00,,,0.00,0,weatherlink.com 1.10,2013-07-17 10:21:00,
2013-07-17 05:36:00,72.3,69.0,30.25,SSE,157,0.0,2.0,89,0.00,,,0.00,0,weatherlink.com 1.10,2013-07-17 10:36:00,
2013-07-17 05:51:00,72.8,70.0,30.26,SSW,201,0.0,1.0,89,0.00,,,0.00,0,weatherlink.com 1.10,2013-07-17 10:51:00,
2013-07-17 06:06:00,72.2,69.0,30.25,SSW,201,0.0,1.0,89,0.00,,,0.00,9,weatherlink.com 1.10,2013-07-17 11:06:00,
2013-07-17 06:21:00,72.0,69.0,30.26,SSW,201,0.0,1.0,90,0.00,,,0.00,19,weatherlink.com 1.10,2013-07-17 11:21:00,
2013-07-17 06:36:00,72.0,69.0,30.26,South,190,0.0,2.0,90,0.00,,,0.00,28,weatherlink.com 1.10,2013-07-17 11:36:00,
2013-07-17 06:51:00,73.1,70.0,30.26,South,190,0.0,1.0,89,0.00,,,0.00,40,weatherlink.com 1.10,2013-07-17 11:51:00,
2013-07-17 07:07:00,74.8,71.0,30.26,South,191,0.0,1.0,87,0.00,,,0.00,70,weatherlink.com 1.10,2013-07-17 12:07:00,
2013-07-17 07:22:00,76.7,71.0,30.27,West,267,1.0,3.0,83,0.00,,,0.00,109,weatherlink.com 1.10,2013-07-17 12:22:00,
2013-07-17 07:37:00,78.3,72.0,30.27,West,265,2.0,4.0,80,0.00,,,0.00,156,weatherlink.com 1.10,2013-07-17 12:37:00,
2013-07-17 07:52:00,79.4,72.0,30.27,WSW,253,4.0,5.0,78,0.00,,,0.00,206,weatherlink.com 1.10,2013-07-17 12:52:00,
2013-07-17 08:07:00,80.5,72.0,30.27,West,270,3.0,4.0,76,0.00,,,0.00,251,weatherlink.com 1.10,2013-07-17 13:07:00,
2013-07-17 08:22:00,81.5,73.0,30.27,WSW,246,1.0,5.0,74,0.00,,,0.00,301,weatherlink.com 1.10,2013-07-17 13:22:00,
2013-07-17 08:37:00,82.5,73.0,30.27,West,263,2.0,5.0,73,0.00,,,0.00,338,weatherlink.com 1.10,2013-07-17 13:37:00,
2013-07-17 08:52:00,83.4,73.0,30.27,West,263,2.0,4.0,70,0.00,,,0.00,388,weatherlink.com 1.10,2013-07-17 13:52:00,
2013-07-17 09:07:00,84.4,73.0,30.27,SW,234,2.0,4.0,69,0.00,,,0.00,436,weatherlink.com 1.10,2013-07-17 14:07:00,
2013-07-17 09:22:00,85.5,73.0,30.27,West,271,1.0,3.0,67,0.00,,,0.00,483,weatherlink.com 1.10,2013-07-17 14:22:00,
2013-07-17 09:37:00,86.3,74.0,30.28,SW,220,3.0,3.0,66,0.00,,,0.00,522,weatherlink.com 1.10,2013-07-17 14:37:00,
2013-07-17 09:52:00,88.0,72.0,30.27,WSW,252,2.0,3.0,59,0.00,,,0.00,573,weatherlink.com 1.10,2013-07-17 14:52:00,
2013-07-17 10:07:00,88.1,72.0,30.27,WSW,244,1.0,3.0,59,0.00,,,0.00,606,weatherlink.com 1.10,2013-07-17 15:07:00,
2013-07-17 10:22:00,88.6,71.0,30.27,SE,135,1.0,6.0,56,0.00,,,0.00,652,weatherlink.com 1.10,2013-07-17 15:22:00,
2013-07-17 10:38:00,89.2,71.0,30.27,West,279,0.0,8.0,56,0.00,,,0.00,691,weatherlink.com 1.10,2013-07-17 15:38:00,
2013-07-17 10:53:00,90.5,71.0,30.27,SSE,163,4.0,5.0,53,0.00,,,0.00,724,weatherlink.com 1.10,2013-07-17 15:53:00,
2013-07-17 11:08:00,90.8,70.0,30.27,West,267,7.0,7.0,50,0.00,,,0.00,763,weatherlink.com 1.10,2013-07-17 16:08:00,
2013-07-17 11:23:00,91.4,70.0,30.27,West,269,1.0,5.0,49,0.00,,,0.00,817,weatherlink.com 1.10,2013-07-17 16:23:00,
2013-07-17 11:38:00,92.0,72.0,30.27,ESE,107,2.0,5.0,52,0.00,,,0.00,847,weatherlink.com 1.10,2013-07-17 16:38:00,
2013-07-17 11:53:00,91.0,69.0,30.27,West,276,3.0,7.0,49,0.00,,,0.00,199,weatherlink.com 1.10,2013-07-17 16:53:00,
2013-07-17 12:08:00,91.8,69.0,30.26,WSW,243,1.0,5.0,47,0.00,,,0.00,1007,weatherlink.com 1.10,2013-07-17 17:08:00,
2013-07-17 12:23:00,92.1,70.0,30.26,SW,229,4.0,6.0,49,0.00,,,0.00,1035,weatherlink.com 1.10,2013-07-17 17:23:00,
2013-07-17 12:38:00,91.9,70.0,30.25,WSW,238,1.0,5.0,49,0.00,,,0.00,302,weatherlink.com 1.10,2013-07-17 17:38:00,
2013-07-17 12:53:00,91.6,70.0,30.25,West,271,2.0,5.0,50,0.00,,,0.00,1049,weatherlink.com 1.10,2013-07-17 17:53:00,
2013-07-17 13:08:00,92.7,71.0,30.24,SW,236,6.0,10.0,49,0.00,,,0.00,207,weatherlink.com 1.10,2013-07-17 18:08:00,
2013-07-17 13:23:00,91.0,71.0,30.24,SSW,209,1.0,4.0,52,0.00,,,0.00,262,weatherlink.com 1.10,2013-07-17 18:23:00,
2013-07-17 13:38:00,91.4,70.0,30.24,SW,229,2.0,6.0,49,0.00,,,0.00,236,weatherlink.com 1.10,2013-07-17 18:38:00,
2013-07-17 13:53:00,90.7,68.0,30.23,South,180,0.0,3.0,47,0.00,,,0.00,218,weatherlink.com 1.10,2013-07-17 18:53:00,
2013-07-17 14:08:00,92.9,69.0,30.23,SE,146,4.0,9.0,46,0.00,,,0.00,1023,weatherlink.com 1.10,2013-07-17 19:08:00,
2013-07-17 14:23:00,92.1,69.0,30.22,SE,142,1.0,6.0,47,0.00,,,0.00,988,weatherlink.com 1.10,2013-07-17 19:23:00,
2013-07-17 14:38:00,93.1,69.0,30.22,SSW,199,1.0,5.0,46,0.00,,,0.00,988,weatherlink.com 1.10,2013-07-17 19:38:00,
2013-07-17 14:53:00,92.9,69.0,30.21,SW,217,2.0,8.0,46,0.00,,,0.00,1013,weatherlink.com 1.10,2013-07-17 19:53:00,
2013-07-17 15:08:00,93.7,71.0,30.21,SE,130,2.0,6.0,47,0.00,,,0.00,963,weatherlink.com 1.10,2013-07-17 20:08:00,
2013-07-17 15:23:00,94.8,70.0,30.20,South,188,4.0,9.0,44,0.00,,,0.00,722,weatherlink.com 1.10,2013-07-17 20:23:00,
2013-07-17 15:38:00,94.0,70.0,30.20,SW,219,3.0,6.0,45,0.00,,,0.00,889,weatherlink.com 1.10,2013-07-17 20:38:00,
2013-07-17 15:53:00,94.7,71.0,30.19,South,191,3.0,9.0,47,0.00,,,0.00,837,weatherlink.com 1.10,2013-07-17 20:53:00,
2013-07-17 16:08:00,93.8,71.0,30.19,SE,125,7.0,8.0,47,0.00,,,0.00,807,weatherlink.com 1.10,2013-07-17 21:08:00,
2013-07-17 16:23:00,93.7,69.0,30.19,SE,140,4.0,8.0,45,0.00,,,0.00,241,weatherlink.com 1.10,2013-07-17 21:23:00,
2013-07-17 16:38:00,95.0,71.0,30.18,SE,146,1.0,7.0,45,0.00,,,0.00,795,weatherlink.com 1.10,2013-07-17 21:38:00,
2013-07-17 16:53:00,94.4,69.0,30.18,SSE,155,3.0,12.0,44,0.00,,,0.00,696,weatherlink.com 1.10,2013-07-17 21:53:00,
2013-07-17 17:09:00,92.7,70.0,30.18,SE,132,2.0,10.0,48,0.00,,,0.00,116,weatherlink.com 1.10,2013-07-17 22:09:00,
2013-07-17 17:24:00,90.5,69.0,30.17,SE,134,1.0,7.0,50,0.00,,,0.00,111,weatherlink.com 1.10,2013-07-17 22:24:00,
2013-07-17 17:39:00,90.5,70.0,30.17,South,175,4.0,6.0,51,0.00,,,0.00,531,weatherlink.com 1.10,2013-07-17 22:39:00,
2013-07-17 17:54:00,90.6,70.0,30.17,South,178,2.0,7.0,51,0.00,,,0.00,146,weatherlink.com 1.10,2013-07-17 22:54:00,
2013-07-17 18:09:00,90.9,70.0,30.17,SE,146,3.0,11.0,51,0.00,,,0.00,396,weatherlink.com 1.10,2013-07-17 23:09:00,
2013-07-17 18:24:00,90.5,71.0,30.16,SSE,161,2.0,8.0,52,0.00,,,0.00,162,weatherlink.com 1.10,2013-07-17 23:24:00,
2013-07-17 18:39:00,90.1,71.0,30.16,SSE,161,5.0,6.0,53,0.00,,,0.00,330,weatherlink.com 1.10,2013-07-17 23:39:00,
2013-07-17 18:54:00,90.7,71.0,30.16,SSE,164,6.0,8.0,53,0.00,,,0.00,287,weatherlink.com 1.10,2013-07-17 23:54:00,
2013-07-17 19:09:00,90.1,71.0,30.16,South,188,3.0,6.0,54,0.00,,,0.00,220,weatherlink.com 1.10,2013-07-18 00:09:00,
2013-07-17 19:24:00,89.9,70.0,30.16,South,171,2.0,5.0,52,0.00,,,0.00,158,weatherlink.com 1.10,2013-07-18 00:24:00,
2013-07-17 19:39:00,89.8,70.0,30.15,South,186,1.0,5.0,52,0.00,,,0.00,123,weatherlink.com 1.10,2013-07-18 00:39:00,
2013-07-17 19:54:00,89.9,71.0,30.15,SSW,209,1.0,3.0,54,0.00,,,0.00,86,weatherlink.com 1.10,2013-07-18 00:54:00,
2013-07-17 20:09:00,88.7,70.0,30.15,SW,219,1.0,4.0,55,0.00,,,0.00,58,weatherlink.com 1.10,2013-07-18 01:09:00,
2013-07-17 20:24:00,87.6,70.0,30.15,SSW,213,2.0,4.0,57,0.00,,,0.00,28,weatherlink.com 1.10,2013-07-18 01:24:00,
2013-07-17 20:39:00,86.3,70.0,30.15,SW,214,1.0,3.0,59,0.00,,,0.00,11,weatherlink.com 1.10,2013-07-18 01:39:00,
2013-07-17 20:54:00,85.3,70.0,30.15,SSW,209,0.0,3.0,60,0.00,,,0.00,0,weatherlink.com 1.10,2013-07-18 01:54:00,
2013-07-17 21:09:00,84.4,70.0,30.15,South,170,0.0,3.0,63,0.00,,,0.00,0,weatherlink.com 1.10,2013-07-18 02:09:00,
2013-07-17 21:24:00,83.3,70.0,30.15,South,181,0.0,2.0,65,0.00,,,0.00,0,weatherlink.com 1.10,2013-07-18 02:24:00,
2013-07-17 21:39:00,82.8,70.0,30.15,South,170,2.0,2.0,66,0.00,,,0.00,0,weatherlink.com 1.10,2013-07-18 02:39:00,
2013-07-17 21:54:00,82.7,70.0,30.16,South,187,2.0,5.0,66,0.00,,,0.00,0,weatherlink.com 1.10,2013-07-18 02:54:00,
2013-07-17 22:09:00,82.1,71.0,30.16,SW,219,2.0,3.0,68,0.00,,,0.00,0,weatherlink.com 1.10,2013-07-18 03:09:00,
2013-07-17 22:24:00,81.5,70.0,30.16,SW,218,0.0,2.0,69,0.00,,,0.00,0,weatherlink.com 1.10,2013-07-18 03:24:00,
2013-07-17 22:39:00,80.2,70.0,30.16,SW,218,1.0,1.0,72,0.00,,,0.00,0,weatherlink.com 1.10,2013-07-18 03:39:00,
2013-07-17 22:54:00,79.0,70.0,30.16,SW,218,0.0,2.0,75,0.00,,,0.00,0,weatherlink.com 1.10,2013-07-18 03:54:00,
2013-07-17 23:09:00,77.8,70.0,30.15,SW,218,0.0,1.0,77,0.00,,,0.00,0,weatherlink.com 1.10,2013-07-18 04:09:00,
2013-07-17 23:24:00,78.2,70.0,30.15,SE,139,1.0,3.0,77,0.00,,,0.00,0,weatherlink.com 1.10,2013-07-18 04:24:00,
2013-07-17 23:39:00,79.1,71.0,30.15,SE,145,1.0,2.0,75,0.00,,,0.00,0,weatherlink.com 1.10,2013-07-18 04:39:00,
2013-07-17 23:54:00,79.2,71.0,30.15,SSE,154,1.0,3.0,75,0.00,,,0.00,0,weatherlink.com 1.10,2013-07-18 04:54:00,